This demonstration page uses our WeatherBlox Daily Observations layout. Learn more.

Left ArrowRight Arrow

40.92945, -100.16068

Hourly Observations for November 23, 2018

Temp ( °F °C ) Dew Point ( °F °C ) Humidity (%) Winds ( mph kmh ) Pressure ( in mb ) Visibility ( mi km ) Precip ( " mm )
12:15 am 00:15 Partly Cloudy 47 8.5 40 4.5 76 76 SSE 10 17 29.65 1004 10 16.0934 0 0
12:35 am 00:35 Clear 47 8.5 40 4.5 76 76 SSE 12 19 29.62 1003 10 16.0934 0 0
12:55 am 00:55 Clear 46 7.8 40 4.2 78 78 SSE 7 11 29.65 1004 10 16.0934 0 0
1:15 am 01:15 Clear 45 7.3 39 4.1 80 80 S 6 9 29.65 1004 10 16.0934 0 0
1:35 am 01:35 Partly Cloudy 44 6.8 39 3.8 81 81 S 3 6 29.62 1003 10 16.0934 0 0
1:55 am 01:55 Partly Cloudy 44 6.7 39 3.9 83 83 S 3 6 29.62 1003 10 16.0934 0 0
2:15 am 02:15 Partly Cloudy 44 6.5 39 3.8 83 83 Calm 29.62 1003 10 16.0934 0 0
2:35 am 02:35 Partly Cloudy 41 5.1 37 2.8 85 85 ENE 3 6 29.65 1004 10 16.0934 0 0
2:55 am 02:55 Partly Cloudy 42 5.3 38 3.1 86 86 Calm 29.65 1004 10 16.0934 0 0
3:15 am 03:15 Partly Cloudy 42 5.5 38 3.4 87 87 Calm 29.62 1003 10 16.0934 0 0
3:35 am 03:35 Partly Cloudy 42 5.5 38 3.3 86 86 Calm 29.62 1003 10 16.0934 0 0
3:55 am 03:55 Partly Cloudy 43 6.1 39 3.8 85 85 Calm 29.59 1002 10 16.0934 0 0
4:15 am 04:15 Clear 43 6 39 3.8 86 86 SW 5 7 29.59 1002 10 16.0934 0 0
4:35 am 04:35 Clear 41 5 38 3.2 88 88 WSW 3 6 29.62 1003 10 16.0934 0 0
4:55 am 04:55 Clear 38 3.6 36 2 89 89 W 6 9 29.62 1003 10 16.0934 0 0
5:15 am 05:15 Clear 38 3.3 36 2 91 91 W 7 11 29.62 1003 10 16.0934 0 0
5:35 am 05:35 Partly Cloudy 37 3 35 1.8 92 92 W 3 6 29.62 1003 10 16.0934 0 0
5:55 am 05:55 Clear 37 2.6 35 1.5 93 93 WSW 5 7 29.65 1004 10 16.0934 0 0
6:15 am 06:15 Partly Cloudy 36 2.2 34 0.9 91 91 WNW 5 7 29.65 1004 10 16.0934 0 0
6:35 am 06:35 Partly Cloudy 33 0.4 31 -0.3 95 95 NNW 5 7 29.65 1004 7 11.26538 0 0
6:55 am 06:55 Partly Cloudy 34 1.1 32 0.2 94 94 NW 6 9 29.65 1004 7 11.26538 0 0
7:15 am 07:15 Mostly Cloudy 33 0.6 32 0 96 96 NNW 6 9 29.65 1004 7 11.26538 0 0
7:35 am 07:35 Mostly Cloudy 34 1.3 33 0.5 94 94 NNW 6 9 29.65 1004 7 11.26538 0 0
8:35 am 08:35 Cloudy 42 5.5 35 1.5 76 76 WNW 14 22 29.65 1004 10 16.0934 0 0
9:35 am 09:35 Mostly Cloudy 48 8.8 35 1.5 61 61 WNW 17 28 29.62 1003 10 16.0934 0 0
10:35 am 10:35 Sunny 53 11.4 33 0.8 48 48 WNW 21 33 29.62 1003 10 16.0934 0 0
10:55 am 10:55 Sunny 55 12.9 32 0 41 41 WNW 23 37 29.59 1002 10 16.0934 0 0
11:15 am 11:15 Sunny 57 13.7 31 -0.3 38 38 WNW 25 41 29.59 1002 10 16.0934 0 0
11:35 am 11:35 Sunny 57 13.8 31 -0.6 37 37 WNW 23 37 29.56 1001 10 16.0934 0 0
11:55 am 11:55 Sunny 59 14.8 30 -0.9 34 34 NW 25 41 29.56 1001 10 16.0934 0 0
12:15 pm 12:15 Sunny 60 15.6 30 -0.9 33 33 NW 25 41 29.56 1001 10 16.0934 0 0
12:35 pm 12:35 Sunny 60 15.8 30 -1.1 32 32 NW 22 35 29.56 1001 10 16.0934 0 0
12:55 pm 12:55 Sunny 61 16.1 29 -1.4 30 30 NW 25 41 29.53 1000 10 16.0934 0 0
1:15 pm 13:15 Sunny 62 16.5 29 -1.7 29 29 NW 24 39 29.53 1000 10 16.0934 0 0
1:35 pm 13:35 Sunny 62 16.5 28 -2.1 28 28 NW 25 41 29.5 999 10 16.0934 0 0
1:55 pm 13:55 Sunny 62 16.5 27 -2.6 27 27 NW 28 44 29.5 999 10 16.0934 0 0
2:15 pm 14:15 Sunny 62 16.7 27 -2.9 26 26 NW 26 43 29.5 999 10 16.0934 0 0
2:35 pm 14:35 Sunny 62 16.5 27 -2.9 27 27 WNW 23 37 29.5 999 10 16.0934 0 0
2:55 pm 14:55 Sunny 62 16.6 27 -3 26 26 NW 21 33 29.53 1000 10 16.0934 0 0
3:15 pm 15:15 Sunny 62 16.4 26 -3.2 26 26 NW 22 35 29.53 1000 10 16.0934 0 0
3:35 pm 15:35 Sunny 61 16 26 -3.2 27 27 NW 22 35 29.53 1000 10 16.0934 0 0
3:55 pm 15:55 Sunny 61 15.9 26 -3.5 26 26 NW 21 33 29.56 1001 10 16.0934 0 0
4:15 pm 16:15 Sunny 60 15.4 26 -3.6 27 27 NW 16 26 29.56 1001 10 16.0934 0 0
4:35 pm 16:35 Sunny 58 14.5 26 -3.5 29 29 NW 14 22 29.59 1002 10 16.0934 0 0
4:55 pm 16:55 Sunny 56 13.3 26 -3.5 31 31 NW 12 19 29.59 1002 10 16.0934 0 0
5:15 pm 17:15 Sunny 51 10.5 26 -3.3 38 38 WNW 10 17 29.62 1003 10 16.0934 0 0
5:35 pm 17:35 Clear 48 8.7 26 -3.1 44 44 WNW 9 15 29.65 1004 10 16.0934 0 0
5:55 pm 17:55 Partly Cloudy 46 7.6 27 -2.6 49 49 WNW 9 15 29.65 1004 10 16.0934 0 0
6:15 pm 18:15 Mostly Cloudy 45 7.4 28 -2.2 51 51 W 7 11 29.65 1004 10 16.0934 0 0
6:35 pm 18:35 Partly Cloudy 45 7 27 -2.6 51 51 WNW 10 17 29.65 1004 10 16.0934 0 0
6:55 pm 18:55 Partly Cloudy 43 6.3 27 -2.7 53 53 WNW 5 7 29.68 1005 10 16.0934 0 0
7:15 pm 19:15 Clear 41 5.1 26 -3.2 55 55 NW 5 7 29.68 1005 10 16.0934 0 0
7:35 pm 19:35 Clear 37 3 26 -3.1 65 65 NW 6 9 29.71 1006 10 16.0934 0 0
7:55 pm 19:55 Clear 38 3.4 26 -3.1 63 63 WNW 8 13 29.74 1007 10 16.0934 0 0
8:15 pm 20:15 Clear 34 1.1 26 -3.2 73 73 WNW 7 11 29.74 1007 10 16.0934 0 0
8:35 pm 20:35 Partly Cloudy 36 2.3 27 -3 68 68 WNW 12 19 29.74 1007 10 16.0934 0 0
8:55 pm 20:55 Clear 42 5.4 28 -2 59 59 WNW 13 20 29.71 1006 10 16.0934 0 0
9:15 pm 21:15 Clear 40 4.7 29 -1.7 64 64 WNW 10 17 29.71 1006 10 16.0934 0 0
9:35 pm 21:35 Clear 39 4 29 -1.4 68 68 WNW 12 19 29.71 1006 10 16.0934 0 0
9:55 pm 21:55 Clear 37 2.9 29 -1.8 72 72 NW 9 15 29.77 1008 10 16.0934 0 0
10:15 pm 22:15 Clear 35 1.5 28 -2.4 76 76 NNW 7 11 29.77 1008 10 16.0934 0 0
10:35 pm 22:35 Clear 34 0.9 27 -2.7 77 77 W 6 9 29.77 1008 10 16.0934 0 0
10:55 pm 22:55 Clear 34 0.9 28 -2.4 79 79 W 9 15 29.77 1008 10 16.0934 0 0
11:15 pm 23:15 Clear 33 0.6 28 -2.4 81 81 W 9 15 29.8 1009 10 16.0934 0 0
11:35 pm 23:35 Clear 33 0.5 28 -2.5 81 81 W 8 13 29.8 1009 10 16.0934 0 0
11:55 pm 23:55 Clear 33 0.3 27 -2.6 81 81 W 7 11 29.8 1009 10 16.0934 0 0

Powered by AerisWeather